Simultaneous Nadir Overpasses (SNOs) Predictions

Prediction of SNOs between LANDSAT-8 and METOP-B Satellite Orbit:

Table of predicted SNOs for the next 14.0 days since TLE Epoch: 12/29/2018
Index Date (LANDSAT-8) Time (LANDSAT-8) Lat,Lon (LANDSAT-8) SZA (LANDSAT-8 ) Date (METOP-B) Time (METOP-B) Lat,Lon (METOP-B) SZA (METOP-B ) Distance(km) Time Diff (sec)
1 12/30/2018 20:36:13 -81.09, 90.27 73.98 12/30/2018 20:36:00 -81.09, 90.19 73.99 1.38 13
2 12/30/2018 21:25:38 81.12,-101.66 106.09 12/30/2018 21:26:38 81.13,-101.47 106.13 3.28 60
3 01/02/2019 16:10:27 -81.10, 156.77 74.22 01/02/2019 16:10:23 -81.10, 156.91 74.21 2.59 4
4 01/02/2019 16:59:52 81.12, -35.18 105.84 01/02/2019 17:01:02 81.12, -35.17 105.87 0.22 70
5 01/05/2019 10:55:16 81.08, 55.25 105.42 01/05/2019 10:54:09 81.07, 55.10 105.38 2.49 67
6 01/05/2019 11:44:42 -81.10,-136.75 74.53 01/05/2019 11:44:48 -81.10,-136.75 74.53 0.34 6
7 01/08/2019 06:29:31 81.07, 121.68 105.05 01/08/2019 06:28:33 81.08, 121.77 105.04 1.78 58
8 01/08/2019 07:18:57 -81.10, -70.30 74.90 01/08/2019 07:19:13 -81.10, -70.41 74.91 2.02 16
9 01/11/2019 02:03:44 81.10,-171.55 104.67 01/11/2019 02:02:56 81.09,-171.57 104.65 0.71 48




NCC Satellite Simultaneous Nadir Overpasses (SNOs) Prediction Service
